When you browse on this site, cookies collect data to enhance your experience and personalize the content and advertising you see.
Visit our Privacy Policy to learn more. By continuing to use the site, you agree to this use of cookies and data.
  • In Hungary
  • List of Countries
  • For 7 days
  • Water Temperature
  • Weather Map
  • News
  • Weather Widgets
  • user-avatar
    Login

    Hourly Weather Donaueschingen

    Today, 6 December, Friday

    Time Temperature Precipitation Wind Pressure Humidity
    00:00 -1°C° 0 mm 1 mps 704 mmHg 51%
    01:00 0°C° 0 mm 1 mps 704 mmHg 52%
    02:00 0°C° 0 mm 1 mps 703 mmHg 53%
    03:00 0°C° 0 mm 1 mps 703 mmHg 53%
    04:00 0°C° 0 mm 1 mps 703 mmHg 54%
    05:00 0°C° 0 mm 1 mps 703 mmHg 57%
    06:00 0°C° 0 mm 1 mps 703 mmHg 61%
    07:00 -2°C° 0 mm 2 mps 703 mmHg 60%
    08:00 -1°C° 0 mm 2 mps 703 mmHg 59%
    09:00 +1°C° 0 mm 2 mps 703 mmHg 57%
    10:00 +2°C° 0 mm 2 mps 703 mmHg 56%
    11:00 +4°C° 0 mm 2 mps 703 mmHg 54%
    12:00 +5°C° 0 mm 2 mps 702 mmHg 53%
    13:00 +5°C° 0 mm 3 mps 702 mmHg 51%
    14:00 +4°C° 0 mm 3 mps 702 mmHg 56%
    15:00 +3°C° 0 mm 3 mps 701 mmHg 62%
    16:00 +2°C° 0 mm 3 mps 700 mmHg 67%
    17:00 +2°C° 0 mm 3 mps 701 mmHg 69%
    18:00 +2°C° 0 mm 3 mps 701 mmHg 70%
    19:00 +1°C° 0 mm 3 mps 701 mmHg 72%
    20:00 +1°C° 0 mm 3 mps 701 mmHg 73%
    21:00 0°C° 0 mm 4 mps 701 mmHg 75%
    22:00 +1°C° 0 mm 4 mps 701 mmHg 76%
    23:00 +1°C° 0.3 mm 5 mps 701 mmHg 81%

    Tomorrow, 7 December, Saturday

    Time Temperature Precipitation Wind Pressure Humidity
    00:00 +1°C° 0.3 mm 5 mps 701 mmHg 85%
    01:00 +2°C° 0.3 mm 6 mps 701 mmHg 90%
    02:00 +2°C° 0.4 mm 6 mps 701 mmHg 91%
    03:00 +2°C° 0.4 mm 5 mps 701 mmHg 92%
    04:00 +2°C° 0.4 mm 5 mps 700 mmHg 93%
    05:00 +2°C° 0.2 mm 5 mps 701 mmHg 93%
    06:00 +3°C° 0.2 mm 4 mps 701 mmHg 94%
    07:00 +3°C° 0.2 mm 3 mps 702 mmHg 94%
    08:00 +3°C° 0.1 mm 3 mps 702 mmHg 94%
    09:00 +3°C° 0.1 mm 3 mps 702 mmHg 93%
    10:00 +3°C° 0.1 mm 3 mps 702 mmHg 93%
    11:00 +4°C° 0 mm 3 mps 702 mmHg 91%
    12:00 +4°C° 0 mm 3 mps 702 mmHg 89%
    13:00 +5°C° 0 mm 3 mps 702 mmHg 87%
    14:00 +4°C° 0 mm 3 mps 702 mmHg 89%
    15:00 +4°C° 0 mm 3 mps 702 mmHg 91%
    16:00 +4°C° 0 mm 2 mps 702 mmHg 93%
    17:00 +4°C° 0 mm 2 mps 702 mmHg 93%
    18:00 +3°C° 0 mm 2 mps 702 mmHg 93%
    19:00 +3°C° 0 mm 2 mps 703 mmHg 94%
    20:00 +2°C° 0 mm 2 mps 703 mmHg 94%
    21:00 +2°C° 0 mm 2 mps 703 mmHg 95%
    22:00 +2°C° 0 mm 2 mps 703 mmHg 96%
    23:00 +2°C° 0 mm 2 mps 703 mmHg 96%

    Day after tomorrow, 8 December, Sunday

    Time Temperature Precipitation Wind Pressure Humidity
    00:00 +2°C° 0 mm 2 mps 702 mmHg 96%
    01:00 +2°C° 0 mm 2 mps 702 mmHg 95%
    02:00 +2°C° 0 mm 2 mps 702 mmHg 95%
    03:00 +2°C° 0 mm 2 mps 701 mmHg 95%
    04:00 +2°C° 0 mm 2 mps 701 mmHg 95%
    05:00 +2°C° 0 mm 2 mps 701 mmHg 94%
    06:00 +2°C° 0 mm 2 mps 700 mmHg 93%
    07:00 +1°C° 0 mm 3 mps 700 mmHg 93%
    08:00 +2°C° 0 mm 3 mps 700 mmHg 92%
    09:00 +3°C° 0 mm 4 mps 700 mmHg 91%
    10:00 +3°C° 0 mm 4 mps 700 mmHg 90%
    11:00 +3°C° 0 mm 5 mps 699 mmHg 88%
    12:00 +5°C° 0 mm 5 mps 699 mmHg 86%
    13:00 +5°C° 0 mm 6 mps 698 mmHg 84%
    14:00 +6°C° 0.3 mm 5 mps 698 mmHg 86%
    15:00 +5°C° 0.3 mm 5 mps 697 mmHg 88%
    16:00 +5°C° 0.3 mm 5 mps 697 mmHg 90%
    17:00 +6°C° 0.7 mm 5 mps 697 mmHg 91%
    18:00 +6°C° 0.7 mm 5 mps 697 mmHg 91%
    19:00 +5°C° 0.7 mm 6 mps 696 mmHg 91%
    20:00 +5°C° 0.2 mm 6 mps 696 mmHg 91%
    21:00 +5°C° 0.2 mm 6 mps 696 mmHg 91%
    22:00 +6°C° 0.2 mm 5 mps 696 mmHg 91%
    23:00 +4°C° 0.2 mm 6 mps 695 mmHg 89%

    9 December, Monday

    Time Temperature Precipitation Wind Pressure Humidity
    00:00 +4°C° 0.2 mm 7 mps 695 mmHg 88%
    01:00 +4°C° 0.2 mm 7 mps 695 mmHg 86%
    02:00 +3°C° 0.3 mm 7 mps 695 mmHg 87%
    03:00 +2°C° 0.3 mm 7 mps 694 mmHg 87%
    04:00 0°C° 0.3 mm 7 mps 694 mmHg 88%
    05:00 0°C° 0 mm 7 mps 694 mmHg 86%
    06:00 -1°C° 0 mm 7 mps 694 mmHg 85%
    07:00 -1°C° 0 mm 7 mps 694 mmHg 83%
    08:00 -1°C° 0.2 mm 7 mps 694 mmHg 86%
    09:00 -1°C° 0.2 mm 7 mps 693 mmHg 89%
    10:00 -1°C° 0.2 mm 8 mps 693 mmHg 91%
    11:00 -1°C° 0.6 mm 8 mps 692 mmHg 92%
    12:00 -1°C° 0.6 mm 8 mps 691 mmHg 93%
    13:00 -1°C° 0.6 mm 7 mps 691 mmHg 94%
    14:00 -1°C° 1.2 mm 7 mps 691 mmHg 95%
    15:00 -1°C° 1.2 mm 7 mps 691 mmHg 95%
    16:00 -1°C° 1.2 mm 6 mps 691 mmHg 96%
    17:00 -1°C° 0.9 mm 6 mps 692 mmHg 95%
    18:00 0°C° 0.9 mm 5 mps 693 mmHg 94%
    19:00 0°C° 0.9 mm 4 mps 694 mmHg 94%
    20:00 0°C° 0.6 mm 5 mps 694 mmHg 94%
    21:00 0°C° 0.6 mm 5 mps 695 mmHg 95%
    22:00 0°C° 0.6 mm 5 mps 695 mmHg 95%
    23:00 -2°C° 1 mm 6 mps 696 mmHg 96%

    10 December, Tuesday

    Time Temperature Precipitation Wind Pressure Humidity
    00:00 -2°C° 1 mm 6 mps 697 mmHg 96%
    01:00 -2°C° 1 mm 6 mps 698 mmHg 96%
    02:00 -2°C° 0.9 mm 6 mps 699 mmHg 94%
    03:00 -2°C° 0.9 mm 5 mps 700 mmHg 91%
    04:00 -2°C° 0.9 mm 5 mps 701 mmHg 89%
    05:00 -3°C° 0.1 mm 4 mps 702 mmHg 90%
    06:00 -3°C° 0.1 mm 4 mps 703 mmHg 92%
    07:00 -4°C° 0.1 mm 3 mps 704 mmHg 94%
    08:00 -2°C° 0.1 mm 3 mps 704 mmHg 93%
    09:00 -2°C° 0.1 mm 3 mps 705 mmHg 92%
    10:00 -2°C° 0.1 mm 3 mps 706 mmHg 91%
    11:00 -1°C° 0.1 mm 3 mps 706 mmHg 89%
    12:00 -1°C° 0.1 mm 3 mps 706 mmHg 86%
    13:00 0°C° 0.1 mm 3 mps 706 mmHg 83%
    14:00 -1°C° 0 mm 2 mps 706 mmHg 85%
    15:00 -1°C° 0 mm 2 mps 706 mmHg 87%
    16:00 0°C° 0 mm 1 mps 705 mmHg 89%
    17:00 -1°C° 0 mm 1 mps 705 mmHg 90%
    18:00 -2°C° 0 mm 1 mps 705 mmHg 90%
    19:00 -3°C° 0 mm 1 mps 704 mmHg 90%
    20:00 -2°C° 0 mm 1 mps 704 mmHg 90%
    21:00 -2°C° 0 mm 1 mps 703 mmHg 90%
    22:00 -4°C° 0 mm 2 mps 702 mmHg 90%
    23:00 -4°C° 0 mm 2 mps 702 mmHg 89%

    11 December, Wednesday

    Time Temperature Precipitation Wind Pressure Humidity
    00:00 -3°C° 0 mm 2 mps 701 mmHg 87%
    01:00 -3°C° 0 mm 2 mps 701 mmHg 85%
    02:00 -3°C° 0 mm 2 mps 700 mmHg 83%
    03:00 -2°C° 0 mm 2 mps 699 mmHg 81%
    04:00 -2°C° 0 mm 2 mps 698 mmHg 78%
    05:00 -2°C° 0 mm 2 mps 698 mmHg 77%
    06:00 -2°C° 0 mm 2 mps 697 mmHg 76%
    07:00 -1°C° 0 mm 2 mps 697 mmHg 75%
    08:00 +1°C° 0.6 mm 2 mps 697 mmHg 81%
    09:00 +1°C° 0.6 mm 2 mps 697 mmHg 87%
    10:00 +1°C° 0.6 mm 3 mps 697 mmHg 93%
    11:00 +1°C° 0.9 mm 3 mps 697 mmHg 94%
    12:00 +1°C° 0.9 mm 3 mps 696 mmHg 96%
    13:00 +1°C° 0.9 mm 4 mps 696 mmHg 97%
    14:00 +1°C° 0.6 mm 4 mps 697 mmHg 97%
    15:00 0°C° 0.6 mm 4 mps 697 mmHg 97%
    16:00 0°C° 0.6 mm 4 mps 697 mmHg 97%
    17:00 0°C° 0 mm 3 mps 697 mmHg 96%
    18:00 -1°C° 0 mm 2 mps 697 mmHg 95%
    19:00 -2°C° 0 mm 2 mps 697 mmHg 95%
    20:00 -2°C° 0 mm 2 mps 697 mmHg 95%
    21:00 -2°C° 0 mm 2 mps 696 mmHg 95%
    22:00 -3°C° 0 mm 2 mps 696 mmHg 95%
    23:00 -2°C° 0.2 mm 2 mps 696 mmHg 95%
    Show more